Location: Althorst
(53.6379°N, 10.7715°E)
Time: 02:39:02
(UTC+00:00)

SKYMED 2 - Pass Details

Date: 10 December 2019
Orbit: 621 x 623 km, 97.9° (Epoch: 22 January)

Event Time Altitude Azimuth Distance (km) Brightness Sun altitude
Exits shadow 18:17:38 48° 299° (WNW) 826 4.4 -28.2°
Maximum altitude 18:17:47 48° 292° (WNW) 823 4.4 -28.3°
Drops below altitude 10° 18:21:57 10° 218° (SW) 1,993 6.6 -28.9°
Sets 18:24:11 0° 213° (SSW) 2,895 7.4 -29.2°
